Date String (YYYY-MM-DD hh:mm:ss) UTC,Instrument flags,Ambient pressure (hPa),Sample flow (lpm),Bypass flow (lpm),Sample temperature (°C),Ambient temperature (°C),ASC tube jacket temperature (°C),LED temperature (°C),Box temperature (°C),Sample RH (%),Span deviation,Mass concentration (μg/m³),Mass concentration (μg/m³),Mass concentration (μg/m³)
DateTimeUTC,F1_M11,P_M11,Q1_M11,Q2_M11,T1_M11,T2_M11,T3_M11,T4_M11,T5_M11,U1_M11,ZSPAN_M11,X0_M11,X2_M11,X1_M11
2023-05-15 23:00:00,,0840.4,5.01,0.00,29.8,28.4,00.0,38.2,31.4,24.8,0000.0,0007.88,0004.98,0004.80
2023-05-15 23:01:00,,0840.4,5.00,0.00,29.9,28.4,00.0,38.2,31.4,24.6,0000.0,0007.75,0004.97,0004.79
2023-05-15 23:02:00,,0840.4,4.98,0.00,29.9,28.4,00.0,38.2,31.4,24.4,0000.0,0007.73,0004.99,0004.81
2023-05-15 23:03:00,,0840.3,5.00,0.00,29.9,28.4,00.0,38.2,31.4,24.5,0000.0,0007.72,0004.99,0004.82
2023-05-15 23:04:00,,0840.3,5.00,0.00,29.9,28.4,00.0,38.2,31.4,24.7,0000.0,0007.44,0004.98,0004.81
2023-05-15 23:05:00,,0840.3,5.01,0.00,29.9,28.4,00.0,38.2,31.5,24.7,0000.0,0007.10,0004.98,0004.80
2023-05-15 23:06:00,,0840.3,5.01,0.00,29.9,28.4,00.0,38.2,31.4,24.3,0000.0,0007.15,0005.01,0004.83
2023-05-15 23:07:00,,0840.2,5.00,0.00,29.9,28.4,00.0,38.2,31.5,24.3,0000.0,0007.26,0005.07,0004.87
2023-05-15 23:08:00,,0840.3,4.98,0.00,29.9,28.4,00.0,38.2,31.5,24.3,0000.0,0007.33,0005.12,0004.91
2023-05-15 23:09:00,,0840.2,4.99,0.00,29.9,28.5,00.0,38.2,31.5,24.3,0000.0,0007.31,0005.13,0004.92
2023-05-15 23:10:00,,0840.2,5.00,0.00,29.9,28.5,00.0,38.3,31.5,24.4,0000.0,0007.34,0005.16,0004.94
2023-05-15 23:11:00,,0840.1,5.00,0.00,29.9,28.5,00.0,38.3,31.5,24.6,0000.0,0007.34,0005.17,0004.96
2023-05-15 23:12:00,,0840.2,5.00,0.00,29.9,28.5,00.0,38.3,31.5,24.4,0000.0,0007.52,0005.17,0004.98
2023-05-15 23:13:00,,0840.2,5.01,0.00,29.9,28.5,00.0,38.3,31.5,24.3,0000.0,0007.81,0005.18,0004.99
2023-05-15 23:14:00,,0840.1,5.00,0.00,30.0,28.5,00.0,38.3,31.5,24.2,0000.0,0007.84,0005.19,0005.00
2023-05-15 23:15:00,,0840.0,4.99,0.00,30.0,28.5,00.0,38.3,31.5,24.3,0000.0,0007.99,0005.22,0005.03
2023-05-15 23:16:00,,0839.9,5.00,0.00,30.0,28.5,00.0,38.3,31.5,24.8,0000.0,0008.06,0005.24,0005.04
2023-05-15 23:17:00,,0839.9,5.00,0.00,30.0,28.6,00.0,38.3,31.6,24.6,0000.0,0008.07,0005.24,0005.03
2023-05-15 23:18:00,,0839.9,5.01,0.00,30.0,28.6,00.0,38.3,31.6,24.9,0000.0,0008.22,0005.20,0005.01
2023-05-15 23:19:00,,0839.9,5.00,0.00,30.0,28.6,00.0,38.3,31.6,24.9,0000.0,0008.31,0005.19,0005.01
2023-05-15 23:20:00,,0839.9,4.99,0.00,30.0,28.6,00.0,38.3,31.6,24.8,0000.0,0008.44,0005.23,0005.02
2023-05-15 23:21:00,,0839.9,5.00,0.00,30.0,28.6,00.0,38.3,31.6,24.4,0000.0,0008.49,0005.22,0005.00
2023-05-15 23:22:00,,0839.9,5.00,0.00,30.0,28.6,00.0,38.4,31.6,24.4,0000.0,0008.54,0005.21,0004.99
2023-05-15 23:23:00,,0840.0,5.00,0.00,30.0,28.6,00.0,38.4,31.6,24.3,0000.0,0008.35,0005.21,0004.98
2023-05-15 23:24:00,,0839.9,5.01,0.00,30.0,28.5,00.0,38.4,31.6,24.3,0000.0,0008.12,0005.21,0004.97
2023-05-15 23:25:00,,0839.9,5.00,0.00,30.0,28.5,00.0,38.4,31.6,24.2,0000.0,0008.10,0005.20,0004.95
2023-05-15 23:26:00,,0839.8,4.99,0.00,30.0,28.4,00.0,38.4,31.5,24.2,0000.0,0007.98,0005.19,0004.95
2023-05-15 23:27:00,,0839.8,4.99,0.00,30.0,28.3,00.0,38.4,31.5,24.1,0000.0,0007.97,0005.19,0004.95
2023-05-15 23:28:00,,0839.7,5.00,0.00,30.0,28.2,00.0,38.4,31.4,24.3,0000.0,0008.14,0005.20,0004.98
2023-05-15 23:29:00,,0839.8,5.00,0.00,29.9,28.2,00.0,38.4,31.4,24.2,0000.0,0007.98,0005.26,0005.02
2023-05-15 23:30:00,,0839.7,5.00,0.00,29.9,28.1,00.0,38.4,31.4,24.3,0000.0,0007.91,0005.28,0005.03
2023-05-15 23:31:00,,0839.7,5.00,0.00,29.9,28.0,00.0,38.3,31.3,24.4,0000.0,0007.82,0005.25,0005.03
2023-05-15 23:32:00,,0839.7,5.01,0.00,29.8,28.0,00.0,38.3,31.3,24.5,0000.0,0007.77,0005.27,0005.06
2023-05-15 23:33:00,,0839.6,5.00,0.00,29.8,28.0,00.0,38.3,31.3,24.6,0000.0,0007.69,0005.26,0005.06
2023-05-15 23:34:00,,0839.7,5.01,0.00,29.8,28.0,00.0,38.3,31.3,24.6,0000.0,0007.65,0005.26,0005.06
2023-05-15 23:35:00,,0839.7,5.01,0.00,29.8,27.9,00.0,38.3,31.2,24.6,0000.0,0008.15,0005.27,0005.07
2023-05-15 23:36:00,,0839.7,4.99,0.00,29.8,27.9,00.0,38.3,31.2,24.7,0000.0,0008.48,0005.28,0005.07
2023-05-15 23:37:00,,0839.7,5.00,0.00,29.7,27.9,00.0,38.3,31.2,25.2,0000.0,0008.51,0005.27,0005.06
2023-05-15 23:38:00,,0839.7,5.00,0.00,29.7,27.9,00.0,38.3,31.2,25.1,0000.0,0008.47,0005.24,0005.03
2023-05-15 23:39:00,,0839.7,5.00,0.00,29.7,27.8,00.0,38.2,31.1,24.8,0000.0,0008.16,0005.23,0005.02
2023-05-15 23:40:00,,0839.7,5.00,0.00,29.6,27.7,00.0,38.2,31.1,25.0,0000.0,0008.14,0005.18,0004.98
2023-05-15 23:41:00,,0839.7,5.00,0.00,29.6,27.6,00.0,38.2,31.0,25.3,0000.0,0008.17,0005.14,0004.94
2023-05-15 23:42:00,,0839.7,5.00,0.00,29.6,27.6,00.0,38.2,31.0,25.6,0000.0,0008.15,0005.12,0004.91
2023-05-15 23:43:00,,0839.7,5.00,0.00,29.6,27.6,00.0,38.2,31.0,25.5,0000.0,0008.12,0005.10,0004.88
2023-05-15 23:44:00,,0839.7,5.00,0.00,29.5,27.5,00.0,38.1,30.9,25.3,0000.0,0008.13,0005.08,0004.86
2023-05-15 23:45:00,,0839.7,5.00,0.00,29.5,27.5,00.0,38.1,30.9,25.4,0000.0,0008.13,0005.08,0004.87
2023-05-15 23:46:00,,0839.7,5.00,0.00,29.4,27.4,00.0,38.1,30.9,25.8,0000.0,0007.84,0005.05,0004.85
2023-05-15 23:47:00,,0839.7,5.00,0.00,29.4,27.4,00.0,38.1,30.8,25.7,0000.0,0007.23,0005.01,0004.82
2023-05-15 23:48:00,,0839.6,5.01,0.00,29.4,27.4,00.0,38.0,30.8,26.0,0000.0,0007.23,0005.03,0004.83
2023-05-15 23:49:00,,0839.5,4.99,0.00,29.4,27.4,00.0,38.0,30.8,26.3,0000.0,0007.36,0005.06,0004.84
2023-05-15 23:50:00,,0839.5,5.00,0.00,29.3,27.4,00.0,38.0,30.8,26.2,0000.0,0007.37,0005.07,0004.84
2023-05-15 23:51:00,,0839.5,4.99,0.00,29.3,27.4,00.0,38.0,30.8,26.0,0000.0,0007.32,0005.07,0004.84
2023-05-15 23:52:00,,0839.5,5.00,0.00,29.3,27.4,00.0,38.0,30.8,25.8,0000.0,0007.29,0005.07,0004.86
2023-05-15 23:53:00,,0839.5,5.01,0.00,29.3,27.4,00.0,37.9,30.8,26.2,0000.0,0007.35,0005.09,0004.88
2023-05-15 23:54:00,,0839.5,5.01,0.00,29.3,27.4,00.0,37.9,30.8,26.1,0000.0,0007.32,0005.09,0004.90
2023-05-15 23:55:00,,0839.5,5.00,0.00,29.3,27.4,00.0,37.9,30.7,26.1,0000.0,0007.29,0005.10,0004.91
2023-05-15 23:56:00,,0839.4,5.00,0.00,29.3,27.4,00.0,37.9,30.7,26.1,0000.0,0007.31,0005.11,0004.92
2023-05-15 23:57:00,,0839.4,4.99,0.00,29.3,27.4,00.0,37.9,30.7,26.2,0000.0,0007.34,0005.11,0004.92
2023-05-15 23:58:00,,0839.3,5.00,0.00,29.2,27.4,00.0,37.8,30.7,26.1,0000.0,0007.38,0005.13,0004.93
2023-05-15 23:59:00,,0839.4,5.00,0.00,29.2,27.4,00.0,37.8,30.7,26.4,0000.0,0007.37,0005.13,0004.94
